| time (UTC) | temp C | wind direction | speed KPH | gust KPH | rain 1hr cm | rain 24hr cm | rain mn cm | humidity % | barometer mb |
| 20260831080502 | 27 | 170 | 11.3 | 0.0 | 0.00 | 0.00 | 0.00 | 37 | 1018.0 |
| 20260831073502 | 26 | 130 | 11.3 | 0.0 | 0.00 | 0.00 | 0.00 | 42 | 1018.0 |
| 20260831070501 | 23 | 120 | 11.3 | 0.0 | 0.00 | 0.00 | 0.00 | 47 | 1018.0 |
| 20260831063502 | 22 | 120 | 12.9 | 0.0 | 0.00 | 0.00 | 0.00 | 47 | 1018.0 |
| 20260831060502 | 22 | 120 | 14.5 | 0.0 | 0.00 | 0.00 | 0.00 | 50 | 1018.0 |
| 20260831053502 | 21 | 100 | 14.5 | 0.0 | 0.00 | 0.00 | 0.00 | 53 | 1018.0 |
| 20260831050503 | 18 | 90 | 11.3 | 0.0 | 0.00 | 0.00 | 0.00 | 60 | 1018.0 |
| 20260831043502 | 17 | 90 | 11.3 | 0.0 | 0.00 | 0.00 | 0.00 | 64 | 1018.0 |
| 20260831040502 | 17 | 80 | 12.9 | 0.0 | 0.00 | 0.00 | 0.00 | 64 | 1018.0 |
| 20260831033502 | 18 | 80 | 9.7 | 0.0 | 0.00 | 0.00 | 0.00 | 56 | 1017.0 |
| 20260831030502 | 18 | 80 | 9.7 | 0.0 | 0.00 | 0.00 | 0.00 | 56 | 1017.0 |
| 20260831023503 | 18 | 80 | 8.0 | 0.0 | 0.00 | 0.00 | 0.00 | 56 | 1018.0 |
| 20260831020503 | 20 | 80 | 11.3 | 0.0 | 0.00 | 0.00 | 0.00 | 53 | 1018.0 |
| 20260831013501 | 20 | 80 | 9.7 | 0.0 | 0.00 | 0.00 | 0.00 | 53 | 1018.0 |
| 20260831010502 | 21 | 3.2 | 0.0 | 0.00 | 0.00 | 0.00 | 50 | 1018.0 | |
| 20260831003502 | 21 | 160 | 8.0 | 0.0 | 0.00 | 0.00 | 0.00 | 50 | 1018.0 |
| 20260831000502 | 22 | 160 | 9.7 | 0.0 | 0.00 | 0.00 | 0.00 | 47 | 1018.0 |
| 20260830233502 | 22 | 160 | 9.7 | 0.0 | 0.00 | 0.00 | 0.00 | 44 | 1018.0 |
| 20260830230502 | 22 | 160 | 11.3 | 0.0 | 0.00 | 0.00 | 0.00 | 50 | 1018.0 |
| 20260830223502 | 22 | 150 | 9.7 | 0.0 | 0.00 | 0.00 | 0.00 | 50 | 1018.0 |
| 20260830220502 | 22 | 110 | 9.7 | 0.0 | 0.00 | 0.00 | 0.00 | 53 | 1018.0 |
| 20260830213502 | 21 | 90 | 12.9 | 0.0 | 0.00 | 0.00 | 0.00 | 57 | 1018.0 |
| 20260830210502 | 21 | 100 | 12.9 | 0.0 | 0.00 | 0.00 | 0.00 | 57 | 1018.0 |
| 20260830203502 | 21 | 80 | 11.3 | 0.0 | 0.00 | 0.00 | 0.00 | 57 | 1018.0 |
| 20260830200502 | 23 | 210 | 3.2 | 0.0 | 0.00 | 0.00 | 0.00 | 44 | 1017.0 |
| 20260830193501 | 23 | 1.6 | 0.0 | 0.00 | 0.00 | 0.00 | 44 | 1017.0 | |
| 20260830190502 | 23 | 3.2 | 0.0 | 0.00 | 0.00 | 0.00 | 44 | 1017.0 | |
| 20260830183502 | 25 | 200 | 4.8 | 0.0 | 0.00 | 0.00 | 0.00 | 42 | 1017.0 |
| 20260830180502 | 25 | 160 | 8.0 | 0.0 | 0.00 | 0.00 | 0.00 | 42 | 1017.0 |
| 20260830173503 | 26 | 170 | 11.3 | 0.0 | 0.00 | 0.00 | 0.00 | 39 | 1017.0 |
| 20260830170502 | 26 | 160 | 11.3 | 0.0 | 0.00 | 0.00 | 0.00 | 45 | 1017.0 |
| 20260830163502 | 27 | 140 | 14.5 | 0.0 | 0.00 | 0.00 | 0.00 | 45 | 1016.0 |
| 20260830160503 | 27 | 140 | 14.5 | 0.0 | 0.00 | 0.00 | 0.00 | 45 | 1016.0 |
| 20260830153502 | 27 | 140 | 16.1 | 0.0 | 0.00 | 0.00 | 0.00 | 40 | 1017.0 |
| 20260830150502 | 28 | 140 | 17.7 | 0.0 | 0.00 | 0.00 | 0.00 | 37 | 1017.0 |
| 20260830143503 | 28 | 150 | 17.7 | 0.0 | 0.00 | 0.00 | 0.00 | 37 | 1016.0 |
| 20260830140502 | 30 | 170 | 9.7 | 0.0 | 0.00 | 0.00 | 0.00 | 35 | 1016.0 |
| 20260830133501 | 30 | 150 | 11.3 | 0.0 | 0.00 | 0.00 | 0.00 | 38 | 1017.0 |
| 20260830130502 | 30 | 170 | 9.7 | 0.0 | 0.00 | 0.00 | 0.00 | 35 | 1017.0 |
| 20260830123501 | 28 | 190 | 12.9 | 0.0 | 0.00 | 0.00 | 0.00 | 37 | 1017.0 |
| 20260830120501 | 28 | 210 | 8.0 | 0.0 | 0.00 | 0.00 | 0.00 | 37 | 1017.0 |
| 20260830113503 | 28 | 11.3 | 0.0 | 0.00 | 0.00 | 0.00 | 37 | 1017.0 | |
| 20260830110502 | 27 | 90 | 11.3 | 0.0 | 0.00 | 0.00 | 0.00 | 42 | 1018.0 |
| 20260830103502 | 27 | 3.2 | 0.0 | 0.00 | 0.00 | 0.00 | 45 | 1018.0 | |
| 20260830100502 | 27 | 8.0 | 0.0 | 0.00 | 0.00 | 0.00 | 48 | 1018.0 | |
| 20260830093502 | 26 | 140 | 8.0 | 0.0 | 0.00 | 0.00 | 0.00 | 51 | 1018.0 |
| 20260830090502 | 25 | 80 | 9.7 | 0.0 | 0.00 | 0.00 | 0.00 | 54 | 1019.0 |
| 20260830083501 | 25 | 150 | 4.8 | 0.0 | 0.00 | 0.00 | 0.00 | 54 | 1019.0 |